Showing default

TIANZHI 1, 43710

Orbit data source: Space-Track

TIANZHI 1, 43710 is a payload satellite owned by Inst. Software (CN) in SSO that was launched on Mon, 19 Nov 2018 UTC via a CHANG ZHENG 2D launch vehicle from the Jiuquan Satellite Launch Center, China (JSC). Payloads include a variety of satellites, spacecraft, and rockets equipped with specific instruments for various scientific and technological missions. These include communications satellites like Starlink; space stations such as the ISS; scientific satellites like the Hubble; Earth observation satellites from companies like Planet Labs, Umbra, and HawkEye 360; GPS; miniature CubeSats for education and research; and military/defense satellites.

Loading next visibility...
TIANZHI 1 details
Identifier
43710, 2018-094A
Orbit
SSO
Last TLE update6 hours ago
Origin
Flag of CNInst. Software (CN / PRC)
ManufacturerIMI/CAS
MissionOperational Civil Communications
Bus & MotorTZ-1, Unknown motor
Mass27 kg wet, 27 kg dry
Launch date (UTC)
2018-11-19 (6 years ago)
Launch vehicle
CHANG ZHENG 2D
Launch site
Jiuquan Satellite Launch Center, China (JSC)
Object type
Payload
Rocket body
Debris
Shape & HBRBox + 2 Pan, 0.5 m
Radar Cross Section0.120 m², Medium (>0.1 m² and < 1m²)

Expand to show TLE details & history

TLE from 6 hours ago
0 TIANZHI 1
1 43710U 18094A   25018.80414400  .00044434  00000-0  60385-3 0  9998
2 43710  97.3547  46.6043 0005197 187.1628 172.9554 15.57467927344030
Epoch: 2025-01-18T19:17Z
Definitive object data (Epoch: 2025-01-18T19:17:58.041Z)
Latitude-0.00005°
Longitude-1.33571°
Altitude401.625 km
Speed7.668 km/s
True Right ascension03h 06m 25s
True Declination0° 00' 00"
Sunlit
Object was in daylight at TLE epoch
Visualization TLE readout
Latitude-79.74801°
Longitude133.70318°
Altitude422.162 km
Speed7.657 km/s
Apparent Right ascension13h 35m 41s
Apparent Declination-60° 48' 36"
Sunlit
Object is in daylight
Visualization observer readout
Local Sidereal Time01:57:15
Azimuth172.706° S
Elevation-68.842°
Doppler factor1
Orbital elements
Apogee altitude395.42 km
Perigee altitude388.384 km
Semi-major axis6,770.039 km
Eccentricity0.0005197
Inclination97.3547°
RAAN46.6043°
Arg. of periapsis187.1628°
True anomaly172.9627°
Mean anomaly172.9554°
Eccentric anomaly172.95905°
Mean motion3.89634 °/min
BSTAR0.00060385
Orbital period92.39 mins
Loading maneuver chart data...
Loading historical data...
Loading historical data...
Loading historical data...
Loading historical data...
Loading historical data...
Loading historical data...
Loading historical data...

TIANZHI 1 Visibility forecast

Observer location: undefined°, undefined

Span
Click to sort rows by Start time (UTC) header in descending order
Start Az.
Max El. time (UTC)
Max El. Az.
Max El.
End time (UTC)
End Az.
5 mins2025-01-19 01:35:59.910Z154.959° SSE2025-01-19 01:37:59.910Z121.898° SE37.812°2025-01-19 01:40:59.910Z357.141° N
4 mins2025-01-19 14:22:59.910Z39.385° NE2025-01-19 14:23:59.910Z84.896° E37.558°2025-01-19 14:26:59.910Z177.431° S
|